www.pogodaiklimat.ru

Погода и климат >> Архив погоды >> Аргентина >> Сан-Хуан


ПОГОДА в Сан-Хуане

  • Прогноз погоды в Сан-Хуане
  • Монитор погоды в Сан-Хуане

АРХИВ ПОГОДЫ в Сан-Хуане

Время (UTC), дата Ветер
(напр.,м/с)
 
Видим.   Явления Облачность Т
(С)
Тd
(С)
f
(%)
Тe
(С)
Тes
(С)
Комфортность P
(гПа)
Po
(гПа)
Тmin
(С)
Tmax
(С)
R
(мм)
R24
(мм)
S
(см)
06 17.02 В 2 15 км ясно +24.8 +12.7 47 +27 +27 жарко 1007.0 941.8
09 17.02 ЮЗ 2 15 км ясно +19.6 +13.1 66 +22 +22 комфорт 1006.6 941.0
12 17.02 Ю 3 15 км ясно +23.1 +12.8 52 +26 +29 жарко 1008.1 942.4 +18.8 +31.6
15 17.02 Ю 3 15 км ясно +31.2 +13.4 34 +32 +46 жарко 1006.9 941.6
18 17.02 ЮЗ 2 15 км ясно +35.2 +13.1 26 +35 +53 опасность
солнечного
удара
1004.0 939.0
21 17.02 Ю 7 15 км ясно +36.7 +11.7 22 +36 +37 очень
жарко
1001.0 935.8
00 18.02 Ю 5 15 км ясно +31.4 +13.3 33 +32 +32 жарко 1001.8 936.5 +23.1 +37.5
03 18.02 штиль 0 15 км ясно +26.4 +14.8 49 +29 +29 жарко 1003.3 938.2
06 18.02 С 2 15 км ясно +23.8 +15.1 58 +27 +27 жарко 1002.0 937.0
09 18.02 СЗ 2 15 км ясно +20.2 +13.8 67 +23 +23 комфорт 1002.5 937.4
12 18.02 Ю 3 15 км ясно +24.4 +14.4 54 +27 +30 жарко 1005.9 940.4 +20.0 +31.4
15 18.02 Ю 6 15 км ясно +31.8 +14.5 35 +34 +40 душно 1006.0 940.8
18 18.02 ЮВ 6 15 км 3/1 1350 м
[Cu hum Ci sp]
+35.4 +14.1 28 +36 +43 очень
жарко
1003.6 938.6
21 18.02 Ю 4 15 км 3/1 1350 м
[Cu hum Cs]
+36.6 +11.0 21 +36 +38 очень
жарко
1001.2 936.1
00 19.02 Ю 5 15 км 3/1 1200 м
[Cu hum Ac trans]
+32.0 +13.5 33 +33 +33 жарко 1002.7 937.4 +24.4 +37.0
03 19.02 ЮЗ 3 15 км зарница 5/3 1200 м
[Cb calv Ac trans]
+30.0 +12.6 34 +31 +31 жарко 1004.9 940.1
06 19.02 Ю 3 15 км {гроза} 4/1 1200 м
[Sc Ac trans]
+26.8 +13.5 44 +29 +29 жарко 1004.7 940.0
09 19.02 ЮЗ 3 15 км ясно +21.6 +15.2 67 +25 +25 комфорт 1005.5 940.2
12 19.02 ЮВ 5 15 км ясно +25.6 +12.1 43 +27 +29 жарко 1008.8 943.3 +21.3 +32.0
15 19.02 Ю 6 15 км 1/1 1200 м
[Cu hum]
+30.5 +8.2 25 +30 +36 жарко 1007.8 942.6
18 19.02 Ю 4 15 км 1/1 1200 м
[Cu hum]
+33.8 +10.9 25 +33 +43 жарко 1004.4 939.4
21 19.02 штиль 0 15 км ясно +36.1 +12.9 25 +36 +42 очень
жарко
1001.3 936.2
00 20.02 Ю 3 15 км 1/1 1350 м
[Cb calv]
+30.9 1002.8 937.6 +25.6 +36.5
03 20.02 Ю 3 15 км 8/0
[Ac und Cs]
+28.4 +12.9 38 +30 +30 жарко 1004.8 939.7
06 20.02 штиль 0 15 км ясно +25.4 +13.1 46 +27 +27 жарко 1004.9 939.8
09 20.02 С 2 15 км ясно +22.4 +13.7 58 +26 +26 жарко 1003.9 938.8
12 20.02 СВ 3 15 км ясно +27.0 +12.7 41 +29 +32 жарко 1004.3 939.0 +21.5 +30.9
15 20.02 В 2 15 км ясно +33.8 +14.2 31 +35 +52 опасность
солнечного
удара
1002.9 938.2
18 20.02 СВ 2 15 км 1/1 1350 м
[Cu hum]
+36.8 +12.9 24 +37 +53 опасность
солнечного
удара
999.9 935.4
21 20.02 Ю 4 15 км 1/1 1350 м
[Cu med, cong]
+39.2 +12.0 20 +39 +41 очень
жарко
996.0 931.8
00 21.02 С 3 15 км 3/3 1350 м
[Cu hum]
+35.7 +13.5 26 +36 +36 очень
жарко
997.4 933.2 +27.0 +40.0
03 21.02 СЗ 5 15 км ясно +33.2 +15.5 35 +36 +36 очень
душно
998.3 934.5
06 21.02 ЮВ 2 15 км ясно +27.2 +16.4 52 +31 +31 душно 999.3 935.0
09 21.02 Ю 5 15 км ясно +27.0 +15.2 48 +30 +30 душно 1000.6 936.5
12 21.02 Ю 9 15 км ясно +26.8 +15.5 50 +30 +30 душно 1005.2 940.5 +25.5 +35.7
15 21.02 Ю 8 15 км ясно +30.4 +17.6 46 +34 +37 очень
душно
1005.7 941.0
18 21.02 Ю 8 15 км ясно +34.0 +16.6 35 +37 +40 очень
душно
1003.9 939.0
21 21.02 Ю 7 15 км 1/1 1350 м
[Cu hum]
+35.6 +16.0 31 +38 +39 очень
душно
1001.2 936.6
00 22.02 Ю 5 15 км 1/1 1350 м
[Cu hum]
+32.0 +15.8 38 +35 +35 очень
душно
1002.8 937.8 +26.8 +36.5
03 22.02 В 2 15 км 1/0
[Ac trans]
+28.8 +15.5 44 +32 +32 душно 1004.5 939.4
06 22.02 Ю 3 15 км ясно +27.4 +14.7 46 +30 +30 жарко 1004.0 939.2
09 22.02 Ю 3 15 км ясно +25.4 +17.5 62 +30 +30 душно 1004.7 939.8
12 22.02 Ю 6 15 км 4/0
[Ac cuf Ci]
+26.6 +19.1 63 +32 +33 очень
душно
1007.7 942.4 +24.8 +32.0
15 22.02 Ю 11 15 км 4/0
[Ac cuf Ci]
+31.1 +15.8 40 +34 +34 душно 1008.4 943.2
18 22.02 Ю 9 10 км 4/0
[Ac cuf Cs]
+31.4 +14.4 36 +33 +34 жарко 1007.3 942.0
21 22.02 Ю 9 15 км 4/0
[Cs]
+32.2 +13.1 31 +33 +33 жарко 1005.4 940.1
00 23.02 Ю 5 15 км 6/0
[Ac und]
+30.0 +12.6 34 +31 +31 жарко 1007.3 941.8 +26.6 +33.5
03 23.02 Ю 5 15 км 6/0
[Ac und]
+28.4 +12.5 37 +30 +30 жарко 1008.0 942.8
06 23.02 Ю 5 15 км 6/0
[Ac und]
+26.2 +17.9 60 +31 +31 очень
душно
1006.9 941.4
09 23.02 Ю 6 15 км 8/0
[Ac und]
+24.2 +18.0 68 +28 +28 душно 1005.6 940.2
12 23.02 Ю 5 15 км 8/5 1200 м
[Frnb Ac und]
+23.2 +18.3 74 +29 +30 душно 1006.3 940.5 +23.2 +30.0
15 23.02 ЮВ 7 15 км 5/5 1200 м
[Cu hum Ci]
+28.7 +18.4 54 +34 +36 очень
душно
1004.1 938.9
18 23.02 Ю 8 15 км 4/4 1200 м
[Cu hum Ci]
+30.7 +15.5 40 +33 +35 душно 1002.0 936.9
21 23.02 Ю 8 15 км 5/4 1200 м
[Sc diur, vesp Ci]
+30.3 +14.3 38 +32 +33 жарко 1001.4 936.1
00 24.02 Ю 5 15 км 6/6 1350 м
[Sc]
+28.0 +13.2 40 +30 +30 жарко 1003.4 937.6 +23.2 +31.4
03 24.02 Ю 3 15 км 5/0
[Ac cuf]
+24.6 +13.7 51 +27 +27 жарко 1004.0 938.4

 

Местоположение метеостанции Сан-Хуан (Аргентина): широта -31.40 долгота -68.41 высота над уровнем моря 598 м.

В архиве по умолчанию представлена погода в Сан-Хуане за последнюю неделю. Архивные данные за месяц целиком и за предыдущие месяцы, начиная с января 2011 года, Вы можете получить, выбрав интересующий диапазон дат из раскрывающегося списка и нажав кнопку "Ввод!".


*Определитесь, кто Вы:
робот инопланетянин человек

Внимание! Время в таблицах - всемирное. Для получения местного времени необходимо прибавить поправку, которая равна -3 ч.

Смотрите также архив погоды в соседних городах и на ближайших метеорологических станциях:

Погода в Мендосе (Аргентина) (163 км)
Погода в Сан-Мартине (Аргентина) (187 км)
Погода в Чамикале (Аргентина) (234 км)
Погода в Ла-Риохе (Аргентина) (272 км)
Погода в Сан-Луисе (Аргентина) (283 км)
Погода в Сантьяго (Чили) (310 км)
Погода в Пудауэле (Чили) (313 км)
Погода в Ла Серене (Чили) (314 км)
Погода в Вилла Долорес (Аргентина) (316 км)
Погода в Кокимбо (Чили) (326 км)

Пояснения к столбцам:

Ветер - указаны скорость ветра в м/с - средняя за 10 мин, порывы в срок и между сроками (в фигурных скобках) и направление, откуда дует ветер: С - северный, СВ - северо-восточный, В - восточный, ЮВ - юго-восточный, Ю - южный, ЮЗ - юго-западный, З - западный, СЗ - северо-западный.
Видимость - горизонтальная дальность видимости в метрах или километрах. При видимости от 1 до 10 км при отсутствии осадков обычно наблюдается дымка, при ухудшении видимости до 1 км и менее - туман. В сухую погоду видимость может ухудшаться дымом, пылью или мглою.
Явления - указаны атмосферные явления, наблюдавшиеся в срок или в последний час перед сроком; фигурными скобками обозначены явления, наблюдавшиеся между сроками (за 1-3 часа до срока); квадратными скобками обозначены град или гололедные отложения с указанием их диаметра в мм.
Облачность - указаны через наклонную черту общая и нижняя облачность в баллах и высота нижней границы облаков в метрах; квадратными скобками обозначены формы облаков: Ci - перистые, Cs - перисто-слоистые, Cc - перисто-кучевые, Ac - высококучевые, As - высокослоистые, Sc - слоисто-кучевые, Ns - слоисто-дождевые, Cu - кучевые, Cb - кучево-дождевые. Подробнее классификацию облаков см. в Атласе облаков (PDF).
T - Температура воздуха - температура, измеренная на высоте 2 м над землей.
Td - Температура точки росы - температура, при понижении до которой содержащийся в воздухе водяной пар достигнет насыщения.
f - Относительная влажность воздуха - влажноcть воздуха, измеренная на высоте 2 м над землей.
Te - Эффективная температура - температура, которую ощущает одетый по сезону человек в тени. Характеристика душности погоды. При расчете учитывается влияние влажности воздуха и скорости ветра на теплоощущения человека.
Tes - Эффективная температура на солнце - температура, которую ощущает человек, с поправкой на солнечный нагрев. Характеристика знойности погоды. Зависит от высоты солнца над горизонтом, облачности и скорости ветра. Ночью, в пасмурную погоду, а также при ветре 12 м/с и более поправка равна нулю.
P - Атмосферное давление - приведенное к уровню моря атмосферное давление.
Po - Атмосферное давление - измеренное на уровне метеостанции атмосферное давление.
Tmin - Минимальная температура - минимум температуры воздуха на высоте 2 м над землей.
Tmax - Максимальная температура - максимум температуры воздуха на высоте 2 м над землей.
R - Количество осадков - Количество выпавших осадков за период времени, мм. При наведении курсора мыши на число - период времени, за который выпало указанное количество осадков.
R24 - Количество осадков - Количество выпавших осадков за 24 часа, мм.
S - Снежный покров - Высота снежного покрова, см. При наведении курсора мыши на число - состояние снежного покрова и степень покрытия местности в баллах.